Retour au catalogue

STARLINK-38079

ActifCommunicationsSSO
NORAD 100165·PAYLOAD·🇺🇸 United States

Lancé Jul 25, 2026 depuis Vandenberg Space Force Base

Loading…

Prochains Passages (prochaines 24 heures)

TLE

FraisSource: Space-Track

Époque: Sep 14, 2026, 14:45 UTC

1 A0165U 26171T   26257.61494750  .00012439  00000-0  34591-3 0  9991
2 A0165  97.2837 290.1328 0001022  76.9914 283.1445 15.36984686  7994

Suivez STARLINK-38079 en temps réel avec AllMySat

Download on the App Store